Find Starlink 31609

NORAD ID: 59269 Int'l Des: 2024-050 Owner: SPXS Country: US Constellation: starlink operational
LEOCIRCULAR

リアルタイム位置

3D地球を読み込み中...

Starlink 31609について

説明を読み込み中...

次回通過

Passes for default location (London). Set your location on the main map for personalized predictions.

高度履歴

Loading altitude history...

軌道要素

1 59269U 24050R 26133.00665740 .00001505 00000-0 62889-4 0 9993
2 59269 53.1611 242.3957 0000156 42.7667 317.3346 15.30207293120390
Epoch: May 13, 2026 • Age: 19 hours

現在のステータス

高度 481.1 km
速度 7.63 km/s
衛星直下点 50.82°N, 143.74°E
打ち上げ日 Mar 19, 2024
運用期間 2.1 years
タイプ internet

技術仕様

分類 Payload
質量 730.00 kg
乾燥質量 700.00 kg
総質量 730.00 kg
長さ 0.30 m
直径 4.10 m
スパン 29.00 m
形状 Box + pan
製造者 SPXS
バスタイプ Starlink V2M
フェーズステータス In Orbit
所有者/国 SPXS/US

Most Searched